TimeCST,TemperatureF,Dew PointF,Humidity,Sea Level PressureIn,VisibilityMPH,Wind Direction,Wind SpeedMPH,Gust SpeedMPH,PrecipitationIn,Events,Conditions,WindDirDegrees,DateUTC
12:54 AM,26.1,17.1,69,30.32,10.0,NNE,3.5,-,N/A,,Clear,20,2012-12-05 06:54:00
1:54 AM,30.0,19.9,66,30.32,10.0,East,5.8,-,N/A,,Clear,90,2012-12-05 07:54:00
2:54 AM,27.0,18.0,69,30.32,10.0,ESE,5.8,-,N/A,,Clear,110,2012-12-05 08:54:00
3:54 AM,25.0,16.0,69,30.32,10.0,South,3.5,-,N/A,,Clear,170,2012-12-05 09:54:00
4:54 AM,25.0,17.1,72,30.30,10.0,SE,5.8,-,N/A,,Clear,140,2012-12-05 10:54:00
5:54 AM,24.1,17.1,75,30.29,10.0,SSE,4.6,-,N/A,,Clear,150,2012-12-05 11:54:00
6:54 AM,26.1,19.0,75,30.27,10.0,SE,6.9,-,N/A,,Clear,140,2012-12-05 12:54:00
8:54 AM,32.0,24.1,73,30.25,10.0,SE,12.7,-,N/A,,Clear,140,2012-12-05 14:54:00
9:54 AM,36.0,26.1,67,30.24,10.0,SE,16.1,-,N/A,,Clear,140,2012-12-05 15:54:00
10:54 AM,39.9,27.0,60,30.20,10.0,SSE,18.4,-,N/A,,Clear,150,2012-12-05 16:54:00
11:54 AM,43.0,27.0,53,30.15,10.0,SE,16.1,-,N/A,,Clear,140,2012-12-05 17:54:00
12:54 PM,46.0,28.0,50,30.09,10.0,SSE,18.4,-,N/A,,Clear,150,2012-12-05 18:54:00
1:54 PM,50.0,28.0,43,30.04,10.0,SSE,16.1,-,N/A,,Clear,150,2012-12-05 19:54:00
2:54 PM,54.0,28.0,37,29.99,10.0,SSE,16.1,-,N/A,,Clear,150,2012-12-05 20:54:00
3:54 PM,54.0,28.9,38,29.96,10.0,SSE,20.7,-,N/A,,Clear,150,2012-12-05 21:54:00
4:54 PM,51.1,28.0,41,29.94,10.0,SSE,15.0,-,N/A,,Clear,160,2012-12-05 22:54:00
5:54 PM,53.1,24.1,32,29.93,10.0,SSE,18.4,-,N/A,,Clear,160,2012-12-05 23:54:00
6:54 PM,53.1,24.1,32,29.92,10.0,South,20.7,-,N/A,,Clear,170,2012-12-06 00:54:00
7:54 PM,53.1,24.1,32,29.91,10.0,South,23.0,-,N/A,,Clear,170,2012-12-06 01:54:00
8:54 PM,52.0,25.0,35,29.91,10.0,South,23.0,-,N/A,,Partly Cloudy,180,2012-12-06 02:54:00
9:54 PM,52.0,25.0,35,29.90,10.0,South,24.2,32.2,N/A,,Clear,180,2012-12-06 03:54:00
10:54 PM,51.1,26.1,38,29.88,10.0,South,27.6,34.5,N/A,,Partly Cloudy,180,2012-12-06 04:54:00
11:54 PM,51.1,25.0,36,29.87,10.0,South,20.7,27.6,N/A,,Clear,180,2012-12-06 05:54:00